| time (UTC) | temp F | wind direction | speed MPH | gust MPH | rain 1hr in | rain 24hr in | rain mn in | humidity % | barometer mb |
| 20260504192003 | 81 | 301 | 4.0 | 14.0 | 0.00 | 0.00 | 0.00 | 37 | 1001.1 |
| 20260504191503 | 81 | 317 | 3.0 | 8.0 | 0.00 | 0.00 | 0.00 | 35 | 1001.1 |
| 20260504191003 | 81 | 307 | 4.0 | 11.0 | 0.00 | 0.00 | 0.00 | 35 | 1001.0 |
| 20260504190504 | 81 | 286 | 5.0 | 14.0 | 0.00 | 0.00 | 0.00 | 31 | 1001.1 |
| 20260504190214 | 81 | 295 | 5.0 | 14.0 | 0.00 | 0.00 | 0.00 | 33 | 1000.8 |
| 20260504185713 | 81 | 322 | 4.0 | 10.0 | 0.00 | 0.00 | 0.00 | 32 | 1001.0 |
| 20260504185003 | 81 | 333 | 4.0 | 15.0 | 0.00 | 0.00 | 0.00 | 34 | 1000.8 |
| 20260504184503 | 82 | 338 | 4.0 | 15.0 | 0.00 | 0.00 | 0.00 | 31 | 1000.8 |
| 20260504184214 | 82 | 326 | 4.0 | 11.0 | 0.00 | 0.00 | 0.00 | 32 | 1000.8 |
| 20260504183503 | 82 | 312 | 4.0 | 12.0 | 0.00 | 0.00 | 0.00 | 31 | 1000.7 |
| 20260504183003 | 82 | 295 | 4.0 | 17.0 | 0.00 | 0.00 | 0.00 | 29 | 1000.6 |
| 20260504182503 | 82 | 273 | 5.0 | 17.0 | 0.00 | 0.00 | 0.00 | 29 | 1000.7 |
| 20260504182003 | 82 | 281 | 4.0 | 14.0 | 0.00 | 0.00 | 0.00 | 28 | 1000.7 |
| 20260504181503 | 82 | 277 | 3.0 | 11.0 | 0.00 | 0.00 | 0.00 | 32 | 1000.7 |
| 20260504181003 | 81 | 275 | 4.0 | 12.0 | 0.00 | 0.00 | 0.00 | 35 | 1000.7 |
| 20260504180713 | 81 | 286 | 5.0 | 12.0 | 0.00 | 0.00 | 0.00 | 33 | 1000.8 |
| 20260504180003 | 81 | 300 | 4.0 | 11.0 | 0.00 | 0.00 | 0.00 | 33 | 1001.0 |
| 20260504175504 | 80 | 300 | 4.0 | 11.0 | 0.00 | 0.00 | 0.00 | 34 | 1001.0 |
| 20260504175004 | 81 | 297 | 4.0 | 11.0 | 0.00 | 0.00 | 0.00 | 29 | 1001.0 |
| 20260504174503 | 81 | 289 | 4.0 | 9.0 | 0.00 | 0.00 | 0.00 | 31 | 1001.0 |
| 20260504174003 | 80 | 292 | 4.0 | 14.0 | 0.00 | 0.00 | 0.00 | 32 | 1001.1 |
| 20260504173503 | 80 | 289 | 5.0 | 14.0 | 0.00 | 0.00 | 0.00 | 32 | 1001.1 |
| 20260504173003 | 80 | 279 | 4.0 | 14.0 | 0.00 | 0.00 | 0.00 | 36 | 1001.1 |
| 20260504172503 | 80 | 268 | 4.0 | 14.0 | 0.00 | 0.00 | 0.00 | 33 | 1001.1 |
| 20260504172003 | 80 | 272 | 5.0 | 15.0 | 0.00 | 0.00 | 0.00 | 32 | 1001.2 |
| 20260504171503 | 80 | 269 | 4.0 | 15.0 | 0.00 | 0.00 | 0.00 | 34 | 1001.0 |
| 20260504171003 | 80 | 279 | 3.0 | 11.0 | 0.00 | 0.00 | 0.00 | 33 | 1001.1 |
| 20260504170503 | 79 | 281 | 4.0 | 10.0 | 0.00 | 0.00 | 0.00 | 32 | 1001.1 |
| 20260504151003 | 69 | 256 | 3.0 | 8.0 | 0.00 | 0.00 | 0.00 | 48 | 1001.4 |
| 20260504150503 | 68 | 243 | 4.0 | 8.0 | 0.00 | 0.00 | 0.00 | 45 | 1001.5 |
| 20260504150212 | 68 | 247 | 3.0 | 8.0 | 0.00 | 0.00 | 0.00 | 46 | 1001.5 |
| 20260504141004 | 62 | 290 | 1.0 | 4.0 | 0.00 | 0.00 | 0.00 | 54 | 1001.8 |
| 20260504140713 | 61 | 288 | 2.0 | 7.0 | 0.00 | 0.00 | 0.00 | 54 | 1001.8 |
| 20260504140214 | 61 | 280 | 4.0 | 9.0 | 0.00 | 0.00 | 0.00 | 53 | 1001.8 |
| 20260504130503 | 55 | 0 | 0.0 | 0.0 | 0.00 | 0.00 | 0.00 | 67 | 1001.7 |
| 20260504110503 | 51 | 0 | 0.0 | 0.0 | 0.00 | 0.00 | 0.00 | 69 | 1001.7 |
| 20260504100503 | 52 | 0 | 0.0 | 0.0 | 0.00 | 0.00 | 0.00 | 65 | 1001.8 |
| 20260504081503 | 53 | 0 | 0.0 | 0.0 | 0.00 | 0.00 | 0.00 | 66 | 1003.2 |
| 20260504081003 | 53 | 199 | 0.0 | 2.0 | 0.00 | 0.00 | 0.00 | 66 | 1003.2 |
| 20260504080713 | 53 | 199 | 0.0 | 2.0 | 0.00 | 0.00 | 0.00 | 68 | 1003.2 |
| 20260504050503 | 57 | 0 | 0.0 | 0.0 | 0.00 | 0.00 | 0.00 | 61 | 1005.8 |
| 20260504050004 | 57 | 0 | 0.0 | 0.0 | 0.00 | 0.00 | 0.00 | 61 | 1005.8 |
| 20260504045714 | 57 | 0 | 0.0 | 0.0 | 0.00 | 0.00 | 0.00 | 61 | 1005.9 |
| 20260504045003 | 58 | 0 | 0.0 | 0.0 | 0.00 | 0.00 | 0.00 | 60 | 1005.9 |
| 20260504044504 | 58 | 0 | 0.0 | 1.0 | 0.00 | 0.00 | 0.00 | 60 | 1006.0 |
| 20260504044003 | 58 | 0 | 0.0 | 1.0 | 0.00 | 0.00 | 0.00 | 59 | 1006.0 |
| 20260504043503 | 58 | 0 | 0.0 | 0.0 | 0.00 | 0.00 | 0.00 | 58 | 1006.1 |
| 20260504043003 | 59 | 200 | 0.0 | 2.0 | 0.00 | 0.00 | 0.00 | 58 | 1006.1 |
| 20260504042714 | 59 | 200 | 0.0 | 2.0 | 0.00 | 0.00 | 0.00 | 58 | 1006.2 |
| 20260504042003 | 59 | 200 | 0.0 | 1.0 | 0.00 | 0.00 | 0.00 | 56 | 1006.2 |
| 20260504041503 | 59 | 0 | 0.0 | 0.0 | 0.00 | 0.00 | 0.00 | 54 | 1006.2 |
| 20260504041003 | 59 | 0 | 0.0 | 0.0 | 0.00 | 0.00 | 0.00 | 54 | 1006.2 |
| 20260504040713 | 60 | 0 | 0.0 | 0.0 | 0.00 | 0.00 | 0.00 | 54 | 1006.3 |
| 20260504040003 | 60 | 0 | 0.0 | 0.0 | 0.00 | 0.00 | 0.00 | 54 | 1006.4 |
| 20260504035714 | 60 | 0 | 0.0 | 0.0 | 0.00 | 0.00 | 0.00 | 55 | 1006.5 |
| 20260504035003 | 60 | 0 | 0.0 | 0.0 | 0.00 | 0.00 | 0.00 | 53 | 1006.5 |
| 20260504034713 | 61 | 0 | 0.0 | 0.0 | 0.00 | 0.00 | 0.00 | 53 | 1006.5 |
| 20260504034004 | 61 | 0 | 0.0 | 0.0 | 0.00 | 0.00 | 0.00 | 53 | 1006.6 |
| 20260504033713 | 61 | 0 | 0.0 | 0.0 | 0.00 | 0.00 | 0.00 | 52 | 1006.7 |
| 20260504033003 | 61 | 0 | 0.0 | 0.0 | 0.00 | 0.00 | 0.00 | 52 | 1006.6 |
| 20260504032503 | 61 | 0 | 0.0 | 0.0 | 0.00 | 0.00 | 0.00 | 52 | 1006.7 |
| 20260504032003 | 61 | 0 | 0.0 | 0.0 | 0.00 | 0.00 | 0.00 | 51 | 1006.7 |
| 20260504031503 | 61 | 0 | 0.0 | 0.0 | 0.00 | 0.00 | 0.00 | 50 | 1006.7 |
| 20260504031003 | 62 | 0 | 0.0 | 0.0 | 0.00 | 0.00 | 0.00 | 51 | 1006.8 |
| 20260504030503 | 62 | 0 | 0.0 | 0.0 | 0.00 | 0.00 | 0.00 | 50 | 1006.9 |
| 20260504030003 | 62 | 0 | 0.0 | 0.0 | 0.00 | 0.00 | 0.00 | 49 | 1006.9 |
| 20260504025503 | 62 | 0 | 0.0 | 0.0 | 0.00 | 0.00 | 0.00 | 48 | 1006.9 |
| 20260504025003 | 62 | 0 | 0.0 | 0.0 | 0.00 | 0.00 | 0.00 | 48 | 1006.9 |
| 20260504024503 | 62 | 0 | 0.0 | 0.0 | 0.00 | 0.00 | 0.00 | 48 | 1006.9 |
| 20260504024003 | 63 | 0 | 0.0 | 0.0 | 0.00 | 0.00 | 0.00 | 48 | 1006.9 |
| 20260504023503 | 63 | 0 | 0.0 | 0.0 | 0.00 | 0.00 | 0.00 | 48 | 1006.9 |
| 20260504023003 | 63 | 0 | 0.0 | 0.0 | 0.00 | 0.00 | 0.00 | 48 | 1006.9 |
| 20260504022503 | 63 | 0 | 0.0 | 0.0 | 0.00 | 0.00 | 0.00 | 47 | 1007.0 |
| 20260504022214 | 63 | 0 | 0.0 | 0.0 | 0.00 | 0.00 | 0.00 | 47 | 1007.0 |
| 20260504021503 | 64 | 0 | 0.0 | 0.0 | 0.00 | 0.00 | 0.00 | 46 | 1007.0 |
| 20260504021003 | 64 | 0 | 0.0 | 0.0 | 0.00 | 0.00 | 0.00 | 44 | 1007.1 |
| 20260504020504 | 64 | 0 | 0.0 | 0.0 | 0.00 | 0.00 | 0.00 | 45 | 1007.0 |
| 20260504020003 | 65 | 0 | 0.0 | 0.0 | 0.00 | 0.00 | 0.00 | 44 | 1007.2 |
| 20260504015503 | 65 | 0 | 0.0 | 0.0 | 0.00 | 0.00 | 0.00 | 43 | 1007.2 |
| 20260504015003 | 66 | 0 | 0.0 | 0.0 | 0.00 | 0.00 | 0.00 | 42 | 1007.2 |
| 20260504014713 | 66 | 0 | 0.0 | 0.0 | 0.00 | 0.00 | 0.00 | 42 | 1007.2 |
| 20260504014214 | 66 | 0 | 0.0 | 0.0 | 0.00 | 0.00 | 0.00 | 42 | 1007.3 |
| 20260504013714 | 67 | 0 | 0.0 | 0.0 | 0.00 | 0.00 | 0.00 | 41 | 1007.2 |
| 20260504013003 | 68 | 0 | 0.0 | 0.0 | 0.00 | 0.00 | 0.00 | 40 | 1007.2 |
| 20260504012503 | 68 | 200 | 0.0 | 1.0 | 0.00 | 0.00 | 0.00 | 41 | 1007.1 |
| 20260504012003 | 69 | 200 | 1.0 | 3.0 | 0.00 | 0.00 | 0.00 | 40 | 1007.2 |
| 20260504011503 | 69 | 200 | 1.0 | 3.0 | 0.00 | 0.00 | 0.00 | 41 | 1007.2 |
| 20260504011003 | 70 | 200 | 1.0 | 2.0 | 0.00 | 0.00 | 0.00 | 38 | 1007.2 |
| 20260504010503 | 70 | 200 | 1.0 | 3.0 | 0.00 | 0.00 | 0.00 | 38 | 1007.3 |
| 20260504010003 | 70 | 200 | 1.0 | 3.0 | 0.00 | 0.00 | 0.00 | 38 | 1007.4 |
| 20260504005503 | 71 | 198 | 2.0 | 4.0 | 0.00 | 0.00 | 0.00 | 36 | 1007.4 |
| 20260504005004 | 71 | 197 | 2.0 | 4.0 | 0.00 | 0.00 | 0.00 | 36 | 1007.5 |
| 20260504004503 | 71 | 197 | 2.0 | 3.0 | 0.00 | 0.00 | 0.00 | 35 | 1007.5 |
| 20260504004003 | 72 | 196 | 2.0 | 4.0 | 0.00 | 0.00 | 0.00 | 35 | 1007.6 |
| 20260504003503 | 72 | 199 | 2.0 | 4.0 | 0.00 | 0.00 | 0.00 | 34 | 1007.6 |
| 20260504003004 | 72 | 210 | 2.0 | 8.0 | 0.00 | 0.00 | 0.00 | 35 | 1007.6 |
| 20260504002503 | 72 | 215 | 3.0 | 8.0 | 0.00 | 0.00 | 0.00 | 34 | 1007.6 |
| 20260504002003 | 73 | 214 | 2.0 | 6.0 | 0.00 | 0.00 | 0.00 | 34 | 1007.7 |
| 20260504001503 | 73 | 227 | 2.0 | 7.0 | 0.00 | 0.00 | 0.00 | 33 | 1007.7 |
| 20260504001003 | 73 | 238 | 2.0 | 7.0 | 0.00 | 0.00 | 0.00 | 34 | 1007.8 |
| 20260504000503 | 74 | 238 | 2.0 | 6.0 | 0.00 | 0.00 | 0.00 | 34 | 1007.9 |
| 20260504000003 | 74 | 253 | 3.0 | 7.0 | 0.00 | 0.00 | 0.00 | 32 | 1007.8 |
| 20260503235503 | 74 | 250 | 3.0 | 7.0 | 0.00 | 0.00 | 0.00 | 33 | 1007.8 |
| 20260503235003 | 74 | 231 | 2.0 | 6.0 | 0.00 | 0.00 | 0.00 | 32 | 1007.9 |
| 20260503234503 | 74 | 278 | 2.0 | 6.0 | 0.00 | 0.00 | 0.00 | 32 | 1007.9 |
| 20260503234213 | 74 | 320 | 2.0 | 6.0 | 0.00 | 0.00 | 0.00 | 32 | 1007.9 |
| 20260503233503 | 74 | 284 | 1.0 | 4.0 | 0.00 | 0.00 | 0.00 | 30 | 1007.9 |
| 20260503233004 | 74 | 277 | 1.0 | 4.0 | 0.00 | 0.00 | 0.00 | 32 | 1007.9 |
| 20260503232503 | 74 | 285 | 1.0 | 4.0 | 0.00 | 0.00 | 0.00 | 31 | 1007.9 |
| 20260503232003 | 74 | 269 | 1.0 | 4.0 | 0.00 | 0.00 | 0.00 | 33 | 1008.0 |
| 20260503231508 | 74 | 246 | 1.0 | 4.0 | 0.00 | 0.00 | 0.00 | 31 | 1008.1 |
| 20260503231003 | 75 | 238 | 2.0 | 7.0 | 0.00 | 0.00 | 0.00 | 29 | 1008.0 |
| 20260503230503 | 75 | 252 | 3.0 | 9.0 | 0.00 | 0.00 | 0.00 | 30 | 1008.1 |
| 20260503230004 | 75 | 257 | 3.0 | 9.0 | 0.00 | 0.00 | 0.00 | 31 | 1008.1 |
| 20260503225714 | 75 | 256 | 2.0 | 9.0 | 0.00 | 0.00 | 0.00 | 32 | 1008.1 |
| 20260503225003 | 75 | 279 | 2.0 | 8.0 | 0.00 | 0.00 | 0.00 | 31 | 1008.1 |
| 20260503224503 | 76 | 285 | 2.0 | 7.0 | 0.00 | 0.00 | 0.00 | 32 | 1008.2 |
| 20260503224003 | 76 | 249 | 1.0 | 7.0 | 0.00 | 0.00 | 0.00 | 31 | 1008.1 |
| 20260503223503 | 76 | 239 | 2.0 | 7.0 | 0.00 | 0.00 | 0.00 | 33 | 1008.1 |
| 20260503223003 | 76 | 239 | 2.0 | 7.0 | 0.00 | 0.00 | 0.00 | 32 | 1008.2 |
| 20260503222504 | 76 | 207 | 3.0 | 7.0 | 0.00 | 0.00 | 0.00 | 30 | 1008.2 |
| 20260503222003 | 76 | 206 | 3.0 | 8.0 | 0.00 | 0.00 | 0.00 | 29 | 1008.2 |
| 20260503221713 | 77 | 229 | 3.0 | 8.0 | 0.00 | 0.00 | 0.00 | 31 | 1008.3 |
| 20260503221214 | 77 | 256 | 3.0 | 9.0 | 0.00 | 0.00 | 0.00 | 29 | 1008.3 |
| 20260503220503 | 77 | 263 | 2.0 | 7.0 | 0.00 | 0.00 | 0.00 | 29 | 1008.3 |
| 20260503220003 | 77 | 271 | 2.0 | 8.0 | 0.00 | 0.00 | 0.00 | 32 | 1008.3 |
| 20260503215503 | 77 | 282 | 2.0 | 9.0 | 0.00 | 0.00 | 0.00 | 32 | 1008.3 |
| 20260503215003 | 76 | 282 | 2.0 | 9.0 | 0.00 | 0.00 | 0.00 | 31 | 1008.4 |
| 20260503214503 | 76 | 266 | 2.0 | 7.0 | 0.00 | 0.00 | 0.00 | 30 | 1008.7 |
| 20260503214003 | 76 | 280 | 2.0 | 7.0 | 0.00 | 0.00 | 0.00 | 33 | 1008.7 |
| 20260503213503 | 76 | 278 | 2.0 | 7.0 | 0.00 | 0.00 | 0.00 | 31 | 1008.8 |
| 20260503213214 | 76 | 278 | 2.0 | 7.0 | 0.00 | 0.00 | 0.00 | 30 | 1008.7 |
| 20260503212504 | 75 | 328 | 2.0 | 7.0 | 0.00 | 0.00 | 0.00 | 32 | 1008.9 |
| 20260503212003 | 75 | 277 | 3.0 | 7.0 | 0.00 | 0.00 | 0.00 | 32 | 1008.8 |
| 20260503211713 | 76 | 268 | 3.0 | 7.0 | 0.00 | 0.00 | 0.00 | 35 | 1008.9 |
| 20260503211003 | 76 | 264 | 4.0 | 10.0 | 0.00 | 0.00 | 0.00 | 29 | 1009.1 |
| 20260503210503 | 76 | 269 | 4.0 | 10.0 | 0.00 | 0.00 | 0.00 | 30 | 1009.1 |
| 20260503210004 | 76 | 278 | 3.0 | 9.0 | 0.00 | 0.00 | 0.00 | 30 | 1009.3 |
| 20260503205503 | 76 | 281 | 2.0 | 8.0 | 0.00 | 0.00 | 0.00 | 32 | 1009.2 |
| 20260503205003 | 76 | 236 | 3.0 | 8.0 | 0.00 | 0.00 | 0.00 | 33 | 1009.3 |
| 20260503204503 | 76 | 201 | 2.0 | 7.0 | 0.00 | 0.00 | 0.00 | 35 | 1009.4 |
| 20260503204214 | 76 | 202 | 3.0 | 7.0 | 0.00 | 0.00 | 0.00 | 36 | 1009.4 |
| 20260503203503 | 75 | 256 | 2.0 | 7.0 | 0.00 | 0.00 | 0.00 | 33 | 1009.6 |
| 20260503203008 | 75 | 311 | 2.0 | 7.0 | 0.00 | 0.00 | 0.00 | 33 | 1009.6 |
| 20260503202713 | 74 | 1 | 2.0 | 6.0 | 0.00 | 0.00 | 0.00 | 34 | 1009.6 |
| 20260503202003 | 74 | 336 | 3.0 | 10.0 | 0.00 | 0.00 | 0.00 | 31 | 1009.6 |
| 20260503201503 | 74 | 314 | 3.0 | 10.0 | 0.00 | 0.00 | 0.00 | 33 | 1009.8 |
| 20260503201003 | 74 | 289 | 3.0 | 11.0 | 0.00 | 0.00 | 0.00 | 30 | 1009.8 |
| 20260503200503 | 74 | 273 | 3.0 | 11.0 | 0.00 | 0.00 | 0.00 | 29 | 1009.9 |
| 20260503200003 | 74 | 285 | 3.0 | 10.0 | 0.00 | 0.00 | 0.00 | 31 | 1010.0 |
| 20260503195503 | 74 | 300 | 3.0 | 10.0 | 0.00 | 0.00 | 0.00 | 31 | 1010.0 |
| 20260503195004 | 73 | 303 | 2.0 | 10.0 | 0.00 | 0.00 | 0.00 | 37 | 1010.0 |
| 20260503194503 | 74 | 293 | 3.0 | 10.0 | 0.00 | 0.00 | 0.00 | 33 | 1010.1 |
| 20260503194213 | 74 | 290 | 3.0 | 10.0 | 0.00 | 0.00 | 0.00 | 34 | 1010.1 |
| 20260503193503 | 73 | 288 | 3.0 | 11.0 | 0.00 | 0.00 | 0.00 | 33 | 1010.2 |
| 20260503193003 | 73 | 319 | 2.0 | 9.0 | 0.00 | 0.00 | 0.00 | 31 | 1010.2 |
| 20260503192504 | 73 | 306 | 3.0 | 9.0 | 0.00 | 0.00 | 0.00 | 35 | 1010.2 |